sat.trackr.live / text

‹ back to catalog

STARLINK-36734

NORAD 67988 · 2026-039C

PAYLOAD ACTIVE UNKNOWN

§ Identity

Operator
Country
US
Launch date
2026-02-27
Launch site
AFETR
Launch vehicle
Mass (kg)
RCS (m²)

Purposes: comms

External: N2YO · Heavens-Above · Gunter

§ Orbital elements

Epoch: 2026-05-24T22:52:29.574912Z

Period
94.27 min
Inclination
43.0003°
Eccentricity
0.0001489
Mean motion
15.27596402 rev/d
Perigee alt
482.0 km
Apogee alt
484.0 km
Semi-major
6,861.1 km
B*
4.4944e-4
RAAN
338.5462°
Arg perigee
262.5929°
Mean anomaly
97.4753°
Rev number
1,336

§ Raw data

STARLINK-367341 67988U 26039C   26144.95312008  .00012132  00000+0  44944-3 0  99992 67988  43.0003 338.5462 0001489 262.5929  97.4753 15.27596402 13367

JSON: /api/v1/satellites/67988 · /tle

For live sub-satellite position, see the globe view (requires WebGL).

§ Visibility from observer

Set your observer location to see the next 7 days of passes ≥ 10°. The values pass through the URL so the page stays shareable.

No JS? Fill the form by hand. The geolocation button needs JavaScript.